SEH431 LGSK-LGAV

Flight info

Callsign SEH431
Flight time 0h 27m
Altitude 15000
Route SIGFO M749 ROPOX
Aircraft A320/M-SDE3FGHIRWY/LB1

Departure

Time 2026-04-22 07:16
Airport Skiathos Island National Airport (LGSK)

Arrival

Time 2026-04-22 07:44
Airport Athens Eleftherios Venizelos International Airport (LGAV)
Time Latitude Longitude Altitude Speed Heading
2026-04-22 06:46 39.17611 23.50175 33 ft 0 kts 281°
2026-04-22 07:06 39.17608 23.50195 32 ft 4 kts 281°
2026-04-22 07:06 39.17606 23.50209 33 ft 0 kts 281°
2026-04-22 07:11 39.17604 23.50206 35 ft 1 kts 254°
2026-04-22 07:11 39.17600 23.50200 34 ft 1 kts 232°
2026-04-22 07:11 39.17597 23.50200 34 ft 0 kts 201°
2026-04-22 07:11 39.17596 23.50201 34 ft 0 kts 186°
2026-04-22 07:12 39.17580 23.50216 33 ft 6 kts 135°
2026-04-22 07:12 39.17550 23.50257 34 ft 7 kts 139°
2026-04-22 07:12 39.17484 23.50258 33 ft 8 kts 198°
2026-04-22 07:12 39.17429 23.50234 31 ft 9 kts 200°
2026-04-22 07:13 39.17364 23.50204 28 ft 11 kts 199°
2026-04-22 07:13 39.17281 23.50168 24 ft 14 kts 198°
2026-04-22 07:13 39.17186 23.50126 21 ft 14 kts 200°
2026-04-22 07:13 39.17094 23.50084 19 ft 14 kts 199°
2026-04-22 07:14 39.17019 23.50090 16 ft 10 kts 180°
2026-04-22 07:14 39.17021 23.50052 16 ft 3 kts 333°
2026-04-22 07:14 39.17029 23.50054 16 ft 0 kts 14°
2026-04-22 07:14 39.17038 23.50060 17 ft 2 kts 23°
2026-04-22 07:15 39.17044 23.50062 18 ft 2 kts 19°
2026-04-22 07:15 39.17051 23.50065 19 ft 2 kts 19°
2026-04-22 07:15 39.17056 23.50068 20 ft 0 kts 19°
2026-04-22 07:16 39.17296 23.50174 25 ft 80 kts 19°
2026-04-22 07:16 39.18051 23.50506 53 ft 149 kts 20°
2026-04-22 07:16 39.19077 23.50982 687 ft 159 kts 17°
2026-04-22 07:17 39.20127 23.51484 1653 ft 161 kts 17°
2026-04-22 07:17 39.21198 23.51959 2330 ft 168 kts 17°
2026-04-22 07:17 39.22381 23.52473 2597 ft 190 kts 17°
2026-04-22 07:17 39.23693 23.53040 2998 ft 204 kts 17°
2026-04-22 07:18 39.25063 23.53639 3627 ft 210 kts 17°
2026-04-22 07:18 39.26464 23.54258 4349 ft 215 kts 15°
2026-04-22 07:18 39.27757 23.55282 5017 ft 228 kts 49°
2026-04-22 07:18 39.28312 23.57208 5665 ft 237 kts 91°
2026-04-22 07:19 39.28030 23.59301 6364 ft 239 kts 110°
2026-04-22 07:19 39.27433 23.61320 7039 ft 242 kts 117°
2026-04-22 07:19 39.26415 23.62995 7697 ft 237 kts 149°
2026-04-22 07:19 39.24945 23.63872 8380 ft 231 kts 174°
2026-04-22 07:20 39.23369 23.63909 9062 ft 225 kts 199°
2026-04-22 07:20 39.21889 23.63297 9789 ft 224 kts 205°
2026-04-22 07:20 39.20411 23.62637 10461 ft 226 kts 205°
2026-04-22 07:20 39.18913 23.61974 11128 ft 230 kts 202°
2026-04-22 07:21 39.17295 23.61683 11647 ft 247 kts 184°
2026-04-22 07:21 39.15488 23.61913 11894 ft 273 kts 179°
2026-04-22 07:21 39.13543 23.62203 12151 ft 296 kts 178°
2026-04-22 07:21 39.11458 23.62520 12710 ft 306 kts 178°
2026-04-22 07:22 39.09325 23.62850 13414 ft 311 kts 178°
2026-04-22 07:22 39.07163 23.63185 14105 ft 315 kts 178°
2026-04-22 07:22 39.04976 23.63521 14708 ft 320 kts 179°
2026-04-22 07:22 39.02750 23.63857 14918 ft 322 kts 179°
2026-04-22 07:23 39.00484 23.64191 14984 ft 338 kts 179°
2026-04-22 07:23 38.98049 23.64536 14989 ft 364 kts 179°
2026-04-22 07:23 38.95450 23.64905 14987 ft 388 kts 178°
2026-04-22 07:23 38.92703 23.65304 14987 ft 403 kts 178°
2026-04-22 07:24 38.89894 23.65725 14987 ft 407 kts 178°
2026-04-22 07:24 38.87074 23.66154 14990 ft 408 kts 178°
2026-04-22 07:24 38.84254 23.66583 14990 ft 408 kts 178°
2026-04-22 07:24 38.81435 23.67007 14992 ft 408 kts 178°
2026-04-22 07:25 38.78613 23.67426 14991 ft 408 kts 178°
2026-04-22 07:25 38.75796 23.67840 14986 ft 408 kts 178°
2026-04-22 07:25 38.72975 23.68251 14989 ft 408 kts 178°
2026-04-22 07:25 38.70151 23.68662 14984 ft 407 kts 178°
2026-04-22 07:26 38.67338 23.69073 14984 ft 408 kts 178°
2026-04-22 07:26 38.64518 23.69484 14979 ft 408 kts 178°
2026-04-22 07:26 38.61734 23.69886 14979 ft 408 kts 178°
2026-04-22 07:26 38.58914 23.70295 14983 ft 408 kts 178°
2026-04-22 07:27 38.56094 23.70706 14985 ft 408 kts 178°
2026-04-22 07:27 38.53269 23.71122 14988 ft 408 kts 178°
2026-04-22 07:27 38.50445 23.71539 14984 ft 408 kts 178°
2026-04-22 07:27 38.47624 23.71954 14983 ft 408 kts 178°
2026-04-22 07:28 38.41978 23.72773 14981 ft 408 kts 178°
2026-04-22 07:28 38.39154 23.73181 14981 ft 408 kts 178°
2026-04-22 07:28 38.36336 23.73590 14980 ft 408 kts 178°
2026-04-22 07:29 38.33510 23.74000 14980 ft 408 kts 178°
2026-04-22 07:29 38.30686 23.74407 14979 ft 408 kts 178°
2026-04-22 07:29 38.27867 23.74814 14979 ft 408 kts 178°
2026-04-22 07:29 38.25045 23.75224 14978 ft 408 kts 178°
2026-04-22 07:30 38.22223 23.75631 14979 ft 408 kts 179°
2026-04-22 07:30 38.19410 23.75676 14977 ft 402 kts 189°
2026-04-22 07:30 38.16681 23.75052 14976 ft 395 kts 200°
2026-04-22 07:30 38.14137 23.73820 14887 ft 385 kts 211°
2026-04-22 07:31 38.11899 23.72120 14654 ft 368 kts 218°
2026-04-22 07:31 38.09794 23.70339 14413 ft 360 kts 218°
2026-04-22 07:31 38.07720 23.68593 14174 ft 356 kts 218°
2026-04-22 07:31 38.05659 23.66863 13939 ft 354 kts 218°
2026-04-22 07:32 38.03631 23.65167 13690 ft 353 kts 217°
2026-04-22 07:32 38.01608 23.63481 12951 ft 345 kts 217°
2026-04-22 07:32 37.99617 23.61819 12007 ft 341 kts 217°
2026-04-22 07:32 37.97653 23.60174 11094 ft 337 kts 217°
2026-04-22 07:33 37.95708 23.58546 10203 ft 333 kts 217°
2026-04-22 07:33 37.93800 23.56952 9688 ft 318 kts 217°
2026-04-22 07:33 37.92023 23.55478 9548 ft 293 kts 217°
2026-04-22 07:33 37.90364 23.54102 9370 ft 280 kts 217°
2026-04-22 07:34 37.88759 23.52764 8864 ft 272 kts 217°
2026-04-22 07:34 37.87237 23.51496 8682 ft 254 kts 217°
2026-04-22 07:34 37.85794 23.50298 8378 ft 242 kts 217°
2026-04-22 07:34 37.84410 23.49146 8078 ft 236 kts 218°
2026-04-22 07:35 37.83046 23.48005 7729 ft 234 kts 217°
2026-04-22 07:35 37.81560 23.47153 7346 ft 238 kts 197°
2026-04-22 07:35 37.79881 23.47021 6955 ft 247 kts 175°
2026-04-22 07:35 37.78228 23.47693 6542 ft 255 kts 152°
2026-04-22 07:36 37.76852 23.49146 6099 ft 262 kts 129°
2026-04-22 07:36 37.76016 23.51164 5689 ft 259 kts 105°
2026-04-22 07:36 37.75756 23.53393 5297 ft 255 kts 95°
2026-04-22 07:36 37.75584 23.55608 4990 ft 250 kts 95°
2026-04-22 07:37 37.75413 23.57761 4863 ft 242 kts 95°
2026-04-22 07:37 37.75247 23.59848 4725 ft 235 kts 95°
2026-04-22 07:37 37.75084 23.61900 4474 ft 234 kts 95°
2026-04-22 07:37 37.74922 23.63938 4219 ft 232 kts 95°
2026-04-22 07:38 37.74759 23.65963 3969 ft 231 kts 96°
2026-04-22 07:38 37.74597 23.67979 3718 ft 230 kts 96°
2026-04-22 07:38 37.74435 23.69982 3472 ft 229 kts 96°
2026-04-22 07:38 37.74281 23.71981 3208 ft 228 kts 92°
2026-04-22 07:39 37.74496 23.73955 2955 ft 225 kts 68°
2026-04-22 07:39 37.75227 23.75625 2997 ft 213 kts 49°
2026-04-22 07:39 37.76294 23.76868 3009 ft 207 kts 34°
2026-04-22 07:39 37.77446 23.77953 3008 ft 206 kts 34°
2026-04-22 07:40 37.78593 23.79036 3008 ft 206 kts 34°
2026-04-22 07:40 37.79740 23.80120 2926 ft 206 kts 34°
2026-04-22 07:40 37.80883 23.81202 2779 ft 202 kts 34°
2026-04-22 07:40 37.81974 23.82237 2702 ft 190 kts 34°
2026-04-22 07:41 37.83028 23.83235 2529 ft 188 kts 34°
2026-04-22 07:41 37.84044 23.84197 2332 ft 175 kts 34°
2026-04-22 07:41 37.84993 23.85096 2092 ft 167 kts 35°
2026-04-22 07:41 37.85895 23.85951 1895 ft 155 kts 35°
2026-04-22 07:42 37.86739 23.86751 1687 ft 149 kts 36°
2026-04-22 07:42 37.87561 23.87531 1468 ft 146 kts 36°
2026-04-22 07:42 37.88372 23.88301 1269 ft 145 kts 36°
2026-04-22 07:42 37.89179 23.89062 1081 ft 144 kts 36°
2026-04-22 07:43 37.89984 23.89820 882 ft 144 kts 36°
2026-04-22 07:43 37.90777 23.90586 658 ft 143 kts 37°
2026-04-22 07:43 37.91565 23.91340 490 ft 142 kts 36°
2026-04-22 07:43 37.92351 23.92082 352 ft 141 kts 37°
2026-04-22 07:44 37.93067 23.92765 295 ft 98 kts 37°
2026-04-22 07:44 37.93448 23.93126 293 ft 48 kts 37°
2026-04-22 07:44 37.93614 23.93407 296 ft 32 kts 66°
2026-04-22 07:44 37.93672 23.93597 302 ft 19 kts 84°
2026-04-22 07:45 37.93604 23.93689 301 ft 14 kts 192°
2026-04-22 07:45 37.93571 23.93664 301 ft 0 kts 216°
2026-04-22 07:46 37.93570 23.93662 302 ft 3 kts 216°
2026-04-22 07:46 37.93527 23.93622 303 ft 9 kts 217°
2026-04-22 07:47 37.93471 23.93593 302 ft 12 kts 175°
2026-04-22 07:47 37.93400 23.93679 303 ft 14 kts 127°
2026-04-22 07:47 37.93342 23.93778 301 ft 14 kts 127°
2026-04-22 07:47 37.93272 23.93837 301 ft 11 kts 168°
2026-04-22 07:48 37.93201 23.93854 302 ft 10 kts 164°
2026-04-22 07:48 37.93153 23.93903 302 ft 10 kts 129°
2026-04-22 07:48 37.93107 23.93980 304 ft 22 kts 127°
2026-04-22 07:48 37.93011 23.94141 302 ft 24 kts 127°
2026-04-22 07:49 37.92911 23.94308 302 ft 19 kts 127°
2026-04-22 07:49 37.92896 23.94420 305 ft 13 kts 50°
2026-04-22 07:49 37.93003 23.94522 303 ft 17 kts 38°
2026-04-22 07:49 37.93111 23.94593 301 ft 18 kts 360°
2026-04-22 07:50 37.93198 23.94596 301 ft 19 kts
2026-04-22 07:50 37.93311 23.94683 301 ft 19 kts 37°
2026-04-22 07:50 37.93386 23.94755 302 ft 9 kts 37°
2026-04-22 07:50 37.93431 23.94798 303 ft 7 kts 37°
2026-04-22 07:51 37.93469 23.94834 301 ft 6 kts 37°
2026-04-22 07:51 37.93500 23.94864 302 ft 5 kts 37°
2026-04-22 07:51 37.93524 23.94887 302 ft 4 kts 37°
2026-04-22 07:51 37.93548 23.94910 302 ft 4 kts 37°
2026-04-22 07:52 37.93560 23.94908 301 ft 1 kts 333°
2026-04-22 07:52 37.93565 23.94902 301 ft 3 kts 320°
2026-04-22 07:52 37.93591 23.94863 303 ft 5 kts 306°
2026-04-22 07:52 37.93599 23.94850 301 ft 1 kts 307°
2026-04-22 07:53 37.93600 23.94848 303 ft 0 kts 307°
2026-04-22 07:53 37.93603 23.94843 302 ft 0 kts 307°
2026-04-22 07:53 37.93605 23.94839 302 ft 0 kts 307°